2022-155B (54252 NORAD) Tracking and Keplerian Element Data

This shows tracking and keplerian element data for the satellite.

Feedback or suggestion? Click here.




ElementValue
Catalog54252
Name2022-155B
Epoch Orbit889
Epoch Day14.18482538
Epoch Year2023
RAAN122.996
Inclination97.54
Eccentricity0.001618
Argument of Perigee88.4502
Mean Anonmoly3.023
Mean Motion15.0997595
Decay Rate9.008E-05
L11 54252U 22155B 23014.18482538 .00009008 00000+0 55671-3 0 9995
L22 54252 97.5400 122.9960 0016180 88.4502 3.0230 15.09975950 8890



Live tracking and technical data element details for 2022-155B (NORAD 54252). 2022-155B can be tracked NOW for your location showing map with azimuth and elevation plus other details from your city location.







IsCatalogInMostPopularTable: catalog: 54252, numindb: 12
Update: records affected: 1



GetName: 54252 2022-155B

Hit Count: updated at: Fri, 27 Jan 2023 20:39:38 GMT